Flight Track Log - Related Links

Times and Time Zones

All times are in EDT time to prevent confusion due to time zone crossing. See the SKW6523 flight status page for this flight to view local times or setup timezone preferences in your user account.

Time Position Orientation Groundspeed Altitude Reporting Facility
EDT Latitude Longitude Course Direction KTS MPH feet Rate Location/Type
Thu 09:14:23 PM 39.8167 -104.6833 348° North 203 234 7,200  Level Denver TRACON
Thu 09:15:29 PM 39.8667 -104.7667 308° West 268 308 8,900 1,333 Climbing Denver TRACON
Thu 09:16:00 PM 40.1892 -104.7784 347° North  Level FlightAware Approximate
Thu 09:16:11 PM 39.8917 -104.8264 299° West 282 325 9,600  Level Denver Center
Thu 09:17:00 PM 40.3030 -104.8126 347° North  Level FlightAware Approximate
Thu 09:17:13 PM 39.9353 -104.9239 300° West 308 354 11,500  Level Denver Center
Thu 09:18:00 PM 40.4164 -104.8499 346° North  Level FlightAware Approximate
Thu 09:18:14 PM 40.0228 -104.9469 349° North 311 358 13,500  Level Denver Center
Thu 09:19:00 PM 40.5297 -104.8870 348° North  Level FlightAware Approximate
Thu 09:19:16 PM 40.1128 -104.9367 North 319 367 15,400  Level Denver Center
Thu 09:20:18 PM 40.2033 -104.9258 North 326 375 17,200 1,597 Climbing Denver Center
Thu 09:21:20 PM 40.3011 -104.9144 North 327 376 18,700 1,016 Climbing Denver Center
Thu 09:22:22 PM 40.4003 -104.9031 North 362 417 19,300 726 Climbing Denver Center
Thu 09:23:24 PM 40.5050 -104.8911 North 375 432 20,200 871 Climbing Denver Center
Thu 09:24:26 PM 40.6139 -104.9286 345° North 369 425 21,100 774 Climbing Denver Center
Thu 09:25:28 PM 40.7194 -104.9611 347° North 387 445 21,800 677 Climbing Denver Center
Thu 09:26:30 PM 40.8233 -104.9789 353° North 387 445 22,500 732 Climbing Denver Center
Thu 09:27:31 PM 40.9361 -104.9869 357° North 403 464 23,300 732 Climbing Denver Center
Thu 09:28:33 PM 41.0681 -104.9942 358° North 408 470 24,000 677 Climbing Denver Center
Thu 09:29:35 PM 41.1736 -105.0289 346° North 421 484 24,700 532 Climbing Denver Center
Thu 09:30:37 PM 41.2153 -105.1239 300° West 392 451 25,100 968 Climbing Denver Center
Thu 09:31:39 PM 41.2656 -105.2911 292° West 381 438 26,700 1,258 Climbing Denver Center
Thu 09:32:41 PM 41.3017 -105.4114 292° West 371 427 27,700 871 Climbing Denver Center
Thu 09:33:43 PM 41.3428 -105.5506 292° West 364 419 28,500 677 Climbing Denver Center
Thu 09:34:45 PM 41.3789 -105.6711 292° West 366 421 29,100 677 Climbing Denver Center
Thu 09:35:47 PM 41.4206 -105.8122 292° West 366 421 29,900 629 Climbing Denver Center
Thu 09:36:49 PM 41.4567 -105.9361 291° West 371 427 30,400 532 Climbing Denver Center
Thu 09:37:51 PM 41.4983 -106.0808 291° West 375 432 31,000 532 Climbing Denver Center
Thu 09:38:53 PM 41.5344 -106.2050 291° West 374 430 31,500 484 Climbing Denver Center
Thu 09:39:55 PM 41.5764 -106.3511 291° West 378 435 32,000 244 Climbing Denver Center
Thu 09:40:56 PM 41.6122 -106.4767 291° West 377 434 32,000  Level Denver Center
Thu 09:41:58 PM 41.6503 -106.6089 291° West 391 450 32,000  Level Denver Center
Thu 09:43:00 PM 41.6950 -106.7636 291° West 401 461 32,000  Level Denver Center
Thu 09:44:02 PM 41.7331 -106.8969 291° West 400 460 32,000  Level Denver Center
Thu 09:45:04 PM 41.7767 -107.0550 290° West 405 466 32,000  Level Denver Center
Thu 09:46:06 PM 41.8158 -107.1925 291° West 411 473 32,000  Level Denver Center
Thu 09:47:08 PM 41.8614 -107.3511 291° West 410 472 32,000  Level Denver Center
Thu 09:48:10 PM 41.8983 -107.4911 290° West 414 476 32,000  Level Denver Center
Thu 09:49:12 PM 41.9425 -107.6531 290° West 415 478 32,000  Level Denver Center
Thu 09:50:14 PM 41.9822 -107.7936 291° West 419 482 32,000  Level Denver Center
Thu 09:50:58 PM 42.0119 -107.9086 289° West 416 479 32,000  Level Salt Lake Center
Thu 09:52:00 PM 42.0483 -108.0475 289° West 413 475 32,000  Level Salt Lake Center
Thu 09:53:01 PM 42.0956 -108.2156 291° West 426 490 32,000  Level Salt Lake Center
Thu 09:54:03 PM 42.1322 -108.3556 289° West 419 482 32,000  Level Salt Lake Center
Thu 09:55:05 PM 42.1750 -108.5186 290° West 416 479 32,000  Level Salt Lake Center
Thu 09:56:07 PM 42.2111 -108.6581 289° West 414 476 32,000  Level Salt Lake Center
Thu 09:57:09 PM 42.2536 -108.8225 289° West 417 480 32,000  Level Salt Lake Center
Thu 09:58:10 PM 42.2897 -108.9633 289° West 415 478 32,000  Level Salt Lake Center
Thu 09:59:12 PM 42.3267 -109.1044 290° West 417 480 32,000  Level Salt Lake Center
Thu 10:00:14 PM 42.3686 -109.2697 289° West 418 481 32,000  Level Salt Lake Center
Thu 10:01:16 PM 42.4039 -109.4097 289° West 415 478 32,000  Level Salt Lake Center
Thu 10:02:18 PM 42.4453 -109.5728 289° West 412 474 32,000  Level Salt Lake Center
Thu 10:03:20 PM 42.4808 -109.7131 289° West 412 474 32,000  Level Salt Lake Center
Thu 10:04:22 PM 42.5211 -109.8756 289° West 410 472 32,000 -780 Level Salt Lake Center
Thu 10:05:23 PM 42.5561 -110.0189 288° West 417 480 30,400 -1,902 Descending Salt Lake Center
Thu 10:06:25 PM 42.6133 -110.1822 296° West 431 496 28,100 -2,032 Descending Salt Lake Center
Thu 10:07:27 PM 42.6753 -110.3047 305° West 415 478 26,200 -1,935 Descending Salt Lake Center
Thu 10:08:29 PM 42.7403 -110.4383 304° West 404 465 24,100 -2,000 Descending Salt Lake Center
Thu 10:09:30 PM 42.7997 -110.5569 304° West 398 458 22,100 -2,146 Descending Salt Lake Center
Thu 10:10:32 PM 42.8694 -110.7006 304° West 392 451 19,700 -1,935 Descending Salt Lake Center
Thu 10:11:34 PM 42.9269 -110.8181 304° West 376 433 18,100 -1,403 Descending Salt Lake Center
Thu 10:12:36 PM 42.9825 -110.9336 303° West 365 420 16,800 -1,366 Descending Salt Lake Center
Thu 10:13:37 PM 43.0367 -111.0433 304° West 352 405 15,300 -1,463 Descending Salt Lake Center
Thu 10:14:39 PM 43.0881 -111.1508 303° West 340 391 13,800 -1,500 Descending Salt Lake Center
Thu 10:15:41 PM 43.1389 -111.2586 303° West 337 388 12,200 -878 Descending Salt Lake Center
Thu 10:16:42 PM 43.1911 -111.3644 304° West 335 386 12,000 -195 Descending Salt Lake Center
Thu 10:17:44 PM 43.2483 -111.4878 303° West 339 390 11,800 -339 Descending Salt Lake Center
Thu 10:18:46 PM 43.2986 -111.5925 303° West 341 392 11,300 -488 Descending Salt Lake Center
Thu 10:19:47 PM 43.3481 -111.7011 302° West 324 373 10,800 -488 Descending Salt Lake Center
Thu 10:20:49 PM 43.3839 -111.7706 305° West 264 304 10,300 -435 Descending Salt Lake Center
Thu 10:21:51 PM 43.4225 -111.8567 302° West 246 283 9,900 -726 Descending Salt Lake Center
Thu 10:22:53 PM 43.4636 -111.9069 318° Northwest 227 261 8,800 -1,065 Descending Salt Lake Center

Login

Don't have an account? Register now (free) for customized features, flight alerts, and more!